Location: Rio Negrinho
(26.2394°S, 49.4999°W)
Time: 21:54:16
(UTC+00:00)

USA 229 - Pass Details

Date: 07 June 2020
Orbit: 980 x 1233 km, 63.4° (Epoch: 24 June)

Event Time Altitude Azimuth Distance (km) Brightness Sun altitude
Rises 08:43:35 0° 311° (NW) 4,151 6.5 -16.9°
Reaches altitude 10° 08:46:36 10° 303° (WNW) 3,186 5.8 -16.3°
Maximum altitude 08:53:39 38° 237° (WSW) 1,761 4.4 -14.8°
Drops below altitude 10° 09:00:33 10° 170° (S) 3,105 6.0 -13.3°
Sets 09:03:30 0° 162° (SSE) 4,036 6.7 -12.7°
